Stations météo

réclame
Mon MeteoGroup
Calvi, France (7754): Température de l'air & dewpoint: 11.01.2018 07:00:00 - 17.01.2018 07:00:00 (CET)Calvi, France (7754): Température de l'air 5cm: 11.01.2018 07:00:00 - 17.01.2018 07:00:00 (CET)Calvi, France (7754): Vitesse du vent & gusts: 11.01.2018 07:00:00 - 17.01.2018 07:00:00 (CET)Calvi, France (7754): Direction du vent: 11.01.2018 07:00:00 - 17.01.2018 07:00:00 (CET)Calvi, France (7754): reduced air pressure: 11.01.2018 07:00:00 - 17.01.2018 07:00:00 (CET)Calvi, France (7754): visibility: 11.01.2018 07:00:00 - 17.01.2018 07:00:00 (CET)Calvi, France (7754): Ensoleillement: 11.01.2018 07:00:00 - 17.01.2018 07:00:00 (CET)Calvi, France (7754): Quantités de précipitations: 11.01.2018 07:00:00 - 17.01.2018 07:00:00 (CET)
Date & Time tt [°C] td [°C] tt 5cm [°C] ff [km/h] ff [knt] fx [km/h] fx [knt] dd ppp [hPa] vv [km] sd [min] rr [mm]
17.01.2018 07:00:00 14,8 8,1 14,3 34 18 82 45 SSW 1009,3 10 0 0,0
17.01.2018 06:00:00 14,9 8,6 14,4 37 20 71 39 S 1009,2 10 0 0,0
17.01.2018 05:00:00 15,3 8,8 14,7 29 16 79 43 SSW 1008,9 10 0 0,0
17.01.2018 04:00:00 15,5 8,7 14,8 46 25 101 55 S 1008,8 10 0 0,0
17.01.2018 03:00:00 15,5 8,2 14,8 48 26 100 54 SSW 1009,5 10 0 0,0
17.01.2018 02:00:00 15,4 8,2 14,7 48 26 91 49 S 1010,3 10 0 0,0
17.01.2018 01:00:00 15,3 8,8 14,8 35 19 81 44 SSW 1011,5 10 0 0,0
17.01.2018 00:00:00 15,2 8,4 14,7 42 23 88 48 S 1012,3 10 0 0,0
16.01.2018 23:00:00 15,2 8,7 14,5 39 21 89 48 SSW 1012,8 10 0 0,0
16.01.2018 22:00:00 15,0 8,7 14,3 48 26 83 45 S 1012,9 10 0 0,0
16.01.2018 21:00:00 14,8 8,7 14,0 44 24 76 41 SSW 1013,2 10 0 0,0
16.01.2018 20:00:00 14,7 8,9 13,9 48 26 82 45 S 1012,3 10 0 0,0
16.01.2018 19:00:00 14,7 8,2 13,8 35 19 81 44 SSW 1012,7 10 0 0,0
16.01.2018 18:00:00 14,4 8,6 13,8 36 20 70 38 S 1012,8 57 0 0,0
16.01.2018 17:00:00 14,7 8,4 14,3 41 22 80 43 S 1013,0 52 0 0,0
16.01.2018 16:00:00 14,7 8,6 14,6 41 22 89 48 SSW 1013,6 46 11 0,0
16.01.2018 15:00:00 15,1 8,8 14,7 37 20 77 42 SSW 1013,8 10 29 0,0
16.01.2018 14:00:00 15,5 7,8 15,7 45 24 96 52 SSW 1014,3 20 50 0,0
16.01.2018 13:00:00 15,2 7,7 14,7 37 20 82 45 SSW 1015,1 10 13 0,0
16.01.2018 12:00:00 14,7 8,4 14,7 35 19 69 37 SSW 1016,3 10 38 0,0
16.01.2018 11:00:00 14,6 8,3 13,4 38 20 72 39 S 1016,2 20 25 0,0
16.01.2018 10:00:00 13,8 7,6 12,9 37 20 72 39 SSW 1016,9 10 0 0,0
16.01.2018 09:00:00 13,0 7,2 11,9 36 20 69 37 S 1016,0 47 0 0,0
16.01.2018 08:00:00 12,4 7,3 10,6 36 20 63 34 SSW 1016,1 46 0 0,0
16.01.2018 07:00:00 11,6 7,1 9,4 27 15 57 31 S 1016,5 52 0 0,2
16.01.2018 06:00:00 11,3 7,2 9,2 29 16 56 30 S 1016,2 10 0 0,2
16.01.2018 05:00:00 11,5 6,6 9,2 26 14 55 30 SSW 1017,1 54 0 0,2
16.01.2018 04:00:00 11,6 5,5 11,1 32 17 62 33 SSW 1017,8 60 0 0,0
16.01.2018 03:00:00 11,7 6,4 10,9 28 15 49 26 SSW 1018,7 60 0 0,0
16.01.2018 02:00:00 11,5 6,6 9,1 26 14 47 25 SSW 1019,2 60 0 0,0
16.01.2018 01:00:00 11,6 6,3 10,5 22 12 44 24 SSW 1019,6 10 0 0,0
16.01.2018 00:00:00 11,6 5,9 10,0 24 13 43 23 SSW 1020,3 10 0 0,0
15.01.2018 23:00:00 10,9 5,6 10,0 19 10 45 24 SSW 1020,3 60 0 0,0
15.01.2018 22:00:00 11,4 5,5 9,1 22 12 42 23 SSW 1020,5 59 0 0,0
15.01.2018 21:00:00 10,5 5,3 8,2 11 6 32 17 SSW 1020,3 10 0 0,0
15.01.2018 20:00:00 9,8 5,6 8,5 9 5 24 13 S 1020,2 57 0 0,2
15.01.2018 19:00:00 10,4 4,3 9,3 12 6 23 12 SSW 1019,9 60 0 0,0
15.01.2018 18:00:00 10,9 4,6 9,9 9 5 29 15 S 1020,4 10 0 0,0
15.01.2018 17:00:00 12,4 4,6 12,0 15 8 27 15 SSW 1020,8 10 0 0,0
15.01.2018 16:00:00 13,0 4,9 13,0 9 5 25 14 SSW 1020,5 10 36 0,0
15.01.2018 15:00:00 14,7 5,2 16,2 15 8 33 18 SSW 1020,3 10 60 0,0
15.01.2018 14:00:00 13,8 5,4 12,0 15 8 24 13 S 1020,6 10 17 0,0
15.01.2018 13:00:00 11,6 6,3 12,0 12 6 33 18 SSW 1021,9 57 0 0,0
15.01.2018 12:00:00 12,5 6,7 12,7 4 2 12 6 - 1022,3 10 16 0,0
15.01.2018 11:00:00 11,0 6,3 11,4 0 0 3 2 N 1023,0 10 1 0,0
15.01.2018 10:00:00 9,8 5,0 6,6 0 0 14 8 N 1022,6 45 36 0,0
15.01.2018 09:00:00 6,0 2,8 2,7 11 6 17 9 SSW 1022,1 10 9 0,0
15.01.2018 08:00:00 3,6 1,1 2,7 5 3 16 9 S 1021,9 10 0 0,0
15.01.2018 07:00:00 4,8 2,2 2,9 13 7 16 8 SSW 1021,1 46 0 0,0
15.01.2018 06:00:00 4,8 2,5 2,6 9 5 16 8 SSW 1021,0 57 0 0,0
15.01.2018 05:00:00 5,5 3,3 3,2 11 6 15 8 SSW 1020,8 10 0 0,0
15.01.2018 04:00:00 4,2 2,2 3,0 9 5 11 6 S 1021,2 40 0 0,0
15.01.2018 03:00:00 5,3 3,1 3,7 5 3 16 9 SW 1021,4 10 0 0,0
15.01.2018 02:00:00 5,4 3,1 3,2 9 5 16 8 S 1021,3 10 0 0,0
15.01.2018 01:00:00 5,5 3,3 3,3 13 7 18 10 S 1021,3 10 0 0,0
15.01.2018 00:00:00 5,4 3,6 3,8 10 6 14 8 S 1021,5 37 0 0,0
14.01.2018 23:00:00 5,4 3,6 3,5 8 4 17 9 S 1021,5 10 0 0,0
14.01.2018 22:00:00 5,9 3,7 4,3 13 7 16 9 SSW 1021,0 39 0 0,0
14.01.2018 21:00:00 6,4 4,6 4,0 9 5 13 7 S 1020,9 35 0 0,0
14.01.2018 20:00:00 5,6 3,6 4,5 6 4 16 9 S 1020,4 33 0 0,0
14.01.2018 19:00:00 6,7 4,5 6,0 13 7 16 9 SSW 1019,9 27 0 0,0
14.01.2018 18:00:00 8,5 5,8 7,6 10 5 13 7 SSW 1019,6 31 0 0,0
14.01.2018 17:00:00 9,8 6,5 9,4 9 5 13 7 SSW 1019,4 10 0 0,2
14.01.2018 16:00:00 11,5 6,4 10,9 4 2 10 5 E 1019,0 18 0 0,0
14.01.2018 15:00:00 12,0 4,2 12,3 5 3 16 9 NNW 1018,7 60 1 0,0
14.01.2018 14:00:00 12,5 4,9 13,7 10 5 14 8 N 1018,5 58 13 0,0
14.01.2018 13:00:00 12,2 5,1 13,3 9 5 19 10 N 1018,7 10 38 0,0
14.01.2018 12:00:00 13,2 6,8 15,4 9 5 14 8 NNW 1019,2 10 53 0,0
14.01.2018 11:00:00 12,0 6,7 11,3 3 1 7 4 NW 1019,8 50 0 0,0
14.01.2018 10:00:00 9,6 6,3 8,3 0 0 8 4 N 1019,7 10 0 0,0
14.01.2018 09:00:00 8,2 5,1 7,0 8 4 13 7 S 1019,0 39 0 0,0
14.01.2018 08:00:00 7,5 4,6 6,8 10 6 12 7 SE 1018,7 41 0 0,0
14.01.2018 07:00:00 7,2 4,5 6,4 4 2 9 5 S 1018,4 47 0 0,0
14.01.2018 06:00:00 6,8 4,1 5,9 6 4 14 7 SSE 1018,4 46 0 0,0
14.01.2018 05:00:00 6,9 4,0 5,3 10 5 15 8 S 1018,4 42 0 0,0
14.01.2018 04:00:00 6,4 3,7 4,1 10 5 14 8 S 1018,9 42 0 0,0
14.01.2018 03:00:00 5,0 2,5 3,4 9 5 15 8 S 1019,3 46 0 0,0
14.01.2018 02:00:00 5,8 3,1 4,5 8 4 13 7 SSW 1019,3 10 0 0,0
14.01.2018 01:00:00 5,6 3,3 3,0 9 5 13 7 SSW 1019,7 36 0 0,0
14.01.2018 00:00:00 4,1 2,3 2,7 6 4 10 6 SSW 1020,0 26 0 0,0
13.01.2018 23:00:00 4,9 2,1 3,2 9 5 13 7 S 1020,2 26 0 0,0
13.01.2018 22:00:00 4,8 2,7 3,1 9 5 16 8 SSW 1020,1 19 0 0,0
13.01.2018 21:00:00 4,8 2,8 3,2 8 5 14 7 S 1020,1 19 0 0,0
13.01.2018 20:00:00 4,1 1,6 3,1 6 3 10 6 S 1020,3 20 0 0,0
13.01.2018 19:00:00 5,9 3,2 4,4 5 3 13 7 SSE 1020,1 23 0 0,0
13.01.2018 18:00:00 7,6 4,0 6,4 11 6 14 7 S 1020,0 14 0 0,0
13.01.2018 17:00:00 10,5 4,8 8,6 5 3 17 9 NW 1019,8 19 23 0,0
13.01.2018 16:00:00 12,0 4,9 12,1 11 6 27 15 N 1019,7 48 39 0,0
13.01.2018 15:00:00 13,3 4,2 15,5 17 9 27 15 N 1019,4 39 60 0,0
13.01.2018 14:00:00 14,1 2,6 15,2 19 10 31 17 N 1019,2 52 60 0,0
13.01.2018 13:00:00 14,3 2,5 15,6 14 7 25 14 NE 1019,7 55 60 0,0
13.01.2018 12:00:00 14,4 1,3 16,6 0 0 13 7 N 1020,5 10 60 0,0
13.01.2018 11:00:00 12,0 3,0 12,9 9 5 12 7 SSE 1020,6 10 60 0,0
13.01.2018 10:00:00 9,3 4,1 4,3 6 4 19 11 SSW 1020,6 60 60 0,0
13.01.2018 09:00:00 4,1 1,8 1,2 3 2 17 9 SW 1020,3 41 1 0,0
13.01.2018 08:00:00 2,8 0,7 1,8 3 2 14 7 S 1020,2 45 0 0,0
13.01.2018 07:00:00 3,8 1,8 2,1 6 3 16 9 SSE 1020,1 47 0 0,0
13.01.2018 06:00:00 3,6 1,6 2,1 9 5 15 8 S 1019,8 10 0 0,0
13.01.2018 05:00:00 3,4 1,4 2,2 8 4 14 8 S 1019,9 10 0 0,0
13.01.2018 04:00:00 4,1 1,6 3,0 6 4 13 7 SSW 1020,1 46 0 0,0
13.01.2018 03:00:00 5,6 2,8 3,9 9 5 18 10 S 1020,5 10 0 0,0
13.01.2018 02:00:00 5,5 2,8 4,7 10 5 16 8 S 1020,4 60 0 0,0
13.01.2018 01:00:00 6,5 3,3 5,3 5 3 10 6 SW 1020,2 57 0 0,0
13.01.2018 00:00:00 6,9 3,7 6,2 8 4 11 6 SSE 1020,2 60 0 0,0
12.01.2018 23:00:00 7,4 3,8 6,8 5 3 14 8 S 1019,8 57 0 0,0
12.01.2018 22:00:00 7,4 3,8 6,8 5 3 16 9 - 1019,4 10 0 0,0
12.01.2018 21:00:00 7,8 3,8 6,2 13 7 16 9 SSE 1018,9 10 0 0,0
12.01.2018 20:00:00 8,1 3,4 6,7 4 2 20 11 SW 1018,5 56 0 0,0
12.01.2018 19:00:00 11,5 3,0 10,6 14 8 29 16 N 1017,8 60 0 0,0
12.01.2018 18:00:00 11,7 3,5 10,6 21 12 31 17 N 1017,2 60 0 0,0
12.01.2018 17:00:00 11,5 4,0 10,9 18 10 39 21 N 1016,8 10 30 0,0
12.01.2018 16:00:00 13,1 4,0 14,5 24 13 39 21 N 1016,2 56 60 0,0
12.01.2018 15:00:00 13,9 4,2 15,9 22 12 41 22 N 1015,4 20 60 0,0
12.01.2018 14:00:00 13,5 6,1 13,9 26 14 42 23 N 1015,1 54 23 0,0
12.01.2018 13:00:00 13,6 5,0 13,3 28 15 45 25 N 1014,9 10 53 0,0
12.01.2018 12:00:00 13,1 4,8 12,6 31 17 48 26 N 1015,3 10 41 0,0
12.01.2018 11:00:00 12,3 4,8 11,2 27 14 41 22 NE 1015,6 53 6 0,0
12.01.2018 10:00:00 11,4 4,8 10,3 22 12 36 20 NNE 1015,2 57 1 0,0
12.01.2018 09:00:00 11,0 4,2 10,1 24 13 42 23 NNE 1014,0 10 0 0,0
12.01.2018 08:00:00 10,8 4,5 9,5 16 9 31 17 N 1013,6 10 0 0,0
12.01.2018 07:00:00 10,9 5,4 9,8 17 9 27 15 NNE 1013,2 60 0 0,0
12.01.2018 06:00:00 10,5 5,5 9,7 18 10 28 15 N 1012,7 60 0 0,0
12.01.2018 05:00:00 10,6 5,8 10,0 18 10 31 17 N 1012,7 60 0 0,0
12.01.2018 04:00:00 10,5 6,4 9,7 13 7 30 16 NNE 1012,3 10 0 0,0
12.01.2018 03:00:00 10,3 7,0 9,7 15 8 24 13 N 1012,1 45 0 0,0
12.01.2018 02:00:00 10,3 7,2 9,4 9 5 25 13 NNE 1011,8 60 0 0,0
12.01.2018 01:00:00 9,9 7,5 9,2 8 4 22 12 N 1011,5 10 0 0,0
12.01.2018 00:00:00 10,2 7,6 9,4 10 5 25 13 N 1011,4 16 0 0,0
11.01.2018 23:00:00 10,6 6,9 9,9 9 5 26 14 N 1011,4 10 0 0,0
11.01.2018 22:00:00 10,5 6,6 9,4 9 5 16 9 N 1011,1 10 0 0,0
11.01.2018 21:00:00 10,5 6,6 9,3 9 5 19 10 N 1010,7 60 0 0,0
11.01.2018 20:00:00 10,7 7,0 9,9 14 7 25 13 NNE 1010,4 60 0 0,0
11.01.2018 19:00:00 10,6 6,9 9,5 16 9 28 15 NNE 1009,8 10 0 0,0
11.01.2018 18:00:00 10,7 6,8 9,8 5 3 17 9 N 1009,5 60 0 0,0
11.01.2018 17:00:00 11,0 6,5 10,5 12 7 26 14 N 1009,0 60 0 0,0
11.01.2018 16:00:00 11,7 6,8 11,7 15 8 29 16 N 1008,9 60 0 0,0
11.01.2018 15:00:00 12,7 7,4 13,4 9 5 24 13 N 1008,4 60 1 0,0
11.01.2018 14:00:00 12,6 7,7 13,3 14 8 28 15 N 1008,3 59 2 0,0
11.01.2018 13:00:00 13,2 8,5 15,0 16 9 23 12 N 1008,5 57 42 0,0
11.01.2018 12:00:00 12,0 8,5 12,1 5 3 9 5 N 1009,3 10 13 0,0
11.01.2018 11:00:00 11,1 8,5 11,3 0 0 4 2 N 1009,9 55 0 0,0
11.01.2018 10:00:00 9,9 8,2 8,3 5 3 10 5 SSW 1009,8 48 0 0,0
11.01.2018 09:00:00 8,1 6,7 6,6 9 5 10 6 SSE 1009,8 58 0 0,0
11.01.2018 08:00:00 8,3 6,6 7,4 7 4 13 7 SSE 1009,6 58 0 0,0
11.01.2018 07:00:00 7,8 6,3 6,8 5 3 11 6 - 1009,9 10 0 0,0

tt = Température de l'air
td = dewpoint
tt 5cm = Température de l'air 5cm
ff = Vitesse du vent
fx = gusts
dd = Direction du vent
ppp = reduced air pressure
vv = visibility
sd = Ensoleillement
rr = Quantités de précipitations

stations d'obs. à proximité